| time (UTC) | temp F | wind direction | speed MPH | gust MPH | rain 1hr in | rain 24hr in | rain mn in | humidity % | barometer mb |
| 20260905033059 | 83 | 21 | 1.0 | 10.0 | 0.00 | 0.00 | 0.00 | 80 | 1015.9 |
| 20260905031559 | 82 | 353 | 0.0 | 4.0 | 0.00 | 0.00 | 0.00 | 84 | 1016.1 |
| 20260905030059 | 83 | 311 | 1.0 | 4.0 | 0.00 | 0.00 | 0.00 | 83 | 1015.6 |
| 20260905024600 | 83 | 311 | 0.0 | 4.0 | 0.00 | 0.00 | 0.00 | 83 | 1015.6 |
| 20260905023100 | 83 | 307 | 2.0 | 4.0 | 0.00 | 0.00 | 0.00 | 84 | 1015.1 |
| 20260905021558 | 83 | 259 | 1.0 | 4.0 | 0.00 | 0.00 | 0.00 | 82 | 1015.3 |
| 20260905020100 | 83 | 188 | 2.0 | 7.0 | 0.00 | 0.00 | 0.00 | 82 | 1015.5 |
| 20260905014557 | 83 | 230 | 2.0 | 6.0 | 0.00 | 0.00 | 0.00 | 82 | 1015.5 |
| 20260905013100 | 83 | 227 | 4.0 | 8.0 | 0.00 | 0.00 | 0.00 | 81 | 1015.0 |
| 20260905011559 | 83 | 205 | 3.0 | 10.0 | 0.00 | 0.00 | 0.00 | 82 | 1014.8 |
| 20260905010107 | 83 | 253 | 5.0 | 12.0 | 0.00 | 0.00 | 0.00 | 82 | 1014.4 |
| 20260905004554 | 83 | 229 | 4.0 | 11.0 | 0.00 | 0.00 | 0.00 | 82 | 1014.6 |
| 20260905003055 | 83 | 209 | 2.0 | 11.0 | 0.00 | 0.00 | 0.00 | 83 | 1014.4 |
| 20260905001554 | 83 | 206 | 4.0 | 12.0 | 0.00 | 0.00 | 0.00 | 82 | 1014.1 |
| 20260905000054 | 83 | 236 | 4.0 | 11.0 | 0.00 | 0.00 | 0.00 | 82 | 1014.2 |
| 20260904234554 | 84 | 208 | 3.0 | 8.0 | 0.00 | 0.00 | 0.00 | 82 | 1014.1 |
| 20260904233053 | 84 | 230 | 5.0 | 15.0 | 0.00 | 0.00 | 0.00 | 81 | 1013.6 |
| 20260904231552 | 85 | 211 | 5.0 | 14.0 | 0.00 | 0.00 | 0.00 | 80 | 1013.6 |
| 20260904224605 | 85 | 222 | 5.0 | 12.0 | 0.00 | 0.00 | 0.00 | 78 | 1013.7 |
| 20260904223051 | 86 | 192 | 6.0 | 11.0 | 0.00 | 0.00 | 0.00 | 77 | 1013.8 |
| 20260904221550 | 86 | 186 | 5.0 | 10.0 | 0.00 | 0.00 | 0.00 | 76 | 1014.1 |
| 20260904220050 | 87 | 230 | 7.0 | 12.0 | 0.00 | 0.00 | 0.00 | 74 | 1014.1 |
| 20260904214554 | 88 | 194 | 6.0 | 15.0 | 0.00 | 0.00 | 0.00 | 72 | 1014.0 |
| 20260904213049 | 88 | 199 | 5.0 | 15.0 | 0.00 | 0.00 | 0.00 | 72 | 1013.8 |
| 20260904211555 | 87 | 224 | 3.0 | 17.0 | 0.00 | 0.00 | 0.00 | 72 | 1013.6 |
| 20260904210051 | 87 | 228 | 7.0 | 17.0 | 0.00 | 0.00 | 0.00 | 73 | 1013.8 |
| 20260904204547 | 88 | 183 | 8.0 | 16.0 | 0.00 | 0.00 | 0.00 | 74 | 1014.1 |
| 20260904203047 | 88 | 211 | 6.0 | 16.0 | 0.00 | 0.00 | 0.00 | 74 | 1014.5 |
| 20260904201547 | 88 | 230 | 8.0 | 15.0 | 0.00 | 0.00 | 0.00 | 74 | 1014.5 |
| 20260904200046 | 88 | 243 | 8.0 | 15.0 | 0.00 | 0.00 | 0.00 | 74 | 1014.8 |
| 20260904194544 | 89 | 213 | 9.0 | 18.0 | 0.00 | 0.00 | 0.00 | 72 | 1015.1 |
| 20260904193050 | 89 | 220 | 5.0 | 13.0 | 0.00 | 0.00 | 0.00 | 72 | 1015.2 |
| 20260904191543 | 89 | 203 | 8.0 | 17.0 | 0.00 | 0.00 | 0.00 | 71 | 1015.6 |
| 20260904190042 | 90 | 220 | 6.0 | 16.0 | 0.00 | 0.00 | 0.00 | 71 | 1015.6 |
| 20260904184540 | 90 | 213 | 7.0 | 14.0 | 0.00 | 0.00 | 0.00 | 69 | 1015.8 |
| 20260904183039 | 90 | 171 | 7.0 | 15.0 | 0.00 | 0.00 | 0.00 | 68 | 1016.1 |
| 20260904181537 | 89 | 236 | 11.0 | 17.0 | 0.00 | 0.00 | 0.00 | 70 | 1016.2 |
| 20260904180036 | 89 | 204 | 8.0 | 16.0 | 0.00 | 0.00 | 0.00 | 71 | 1016.3 |
| 20260904174537 | 89 | 226 | 7.0 | 15.0 | 0.00 | 0.00 | 0.00 | 71 | 1016.4 |
| 20260904173037 | 89 | 242 | 5.0 | 14.0 | 0.00 | 0.00 | 0.00 | 73 | 1016.3 |
| 20260904171543 | 89 | 261 | 6.0 | 14.0 | 0.00 | 0.00 | 0.00 | 74 | 1016.5 |
| 20260904170034 | 89 | 186 | 6.0 | 14.0 | 0.00 | 0.00 | 0.00 | 72 | 1016.5 |
| 20260904164533 | 89 | 215 | 6.0 | 14.0 | 0.00 | 0.00 | 0.00 | 73 | 1016.7 |
| 20260904163032 | 89 | 194 | 6.0 | 13.0 | 0.00 | 0.00 | 0.00 | 73 | 1017.0 |
| 20260904161530 | 88 | 80 | 8.0 | 14.0 | 0.00 | 0.00 | 0.00 | 73 | 1017.2 |
| 20260904160044 | 88 | 213 | 6.0 | 14.0 | 0.00 | 0.00 | 0.00 | 74 | 1017.2 |
| 20260904154533 | 88 | 209 | 5.0 | 14.0 | 0.00 | 0.00 | 0.00 | 73 | 1017.3 |
| 20260904153026 | 87 | 125 | 5.0 | 10.0 | 0.00 | 0.00 | 0.00 | 75 | 1017.3 |
| 20260904151528 | 87 | 242 | 6.0 | 11.0 | 0.00 | 0.00 | 0.00 | 74 | 1017.2 |
| 20260904150039 | 87 | 207 | 6.0 | 11.0 | 0.00 | 0.00 | 0.00 | 73 | 1017.3 |
| 20260904144523 | 87 | 218 | 2.0 | 7.0 | 0.00 | 0.00 | 0.00 | 77 | 1017.3 |
| 20260904143020 | 86 | 282 | 2.0 | 5.0 | 0.00 | 0.00 | 0.00 | 76 | 1017.1 |
| 20260904141527 | 86 | 137 | 1.0 | 7.0 | 0.00 | 0.00 | 0.00 | 78 | 1017.1 |
| 20260904140025 | 86 | 279 | 3.0 | 8.0 | 0.00 | 0.00 | 0.00 | 78 | 1016.9 |
| 20260904134516 | 86 | 194 | 3.0 | 8.0 | 0.00 | 0.00 | 0.00 | 78 | 1016.8 |
| 20260904133014 | 85 | 278 | 3.0 | 8.0 | 0.00 | 0.00 | 0.00 | 79 | 1016.9 |
| 20260904131510 | 84 | 219 | 3.0 | 7.0 | 0.00 | 0.00 | 0.00 | 82 | 1016.9 |
| 20260904130011 | 83 | 244 | 4.0 | 8.0 | 0.00 | 0.00 | 0.00 | 85 | 1016.9 |
| 20260904124504 | 82 | 255 | 1.0 | 6.0 | 0.00 | 0.00 | 0.00 | 87 | 1016.8 |
| 20260904123004 | 81 | 251 | 1.0 | 5.0 | 0.00 | 0.00 | 0.00 | 88 | 1016.8 |
| 20260904121504 | 80 | 256 | 0.0 | 4.0 | 0.00 | 0.00 | 0.00 | 89 | 1016.7 |
| 20260904120003 | 80 | 249 | 2.0 | 5.0 | 0.00 | 0.00 | 0.00 | 89 | 1016.7 |
| 20260904114503 | 79 | 248 | 1.0 | 4.0 | 0.00 | 0.00 | 0.00 | 89 | 1016.8 |
| 20260904113002 | 79 | 248 | 2.0 | 3.0 | 0.00 | 0.00 | 0.00 | 89 | 1016.7 |
| 20260904111501 | 79 | 245 | 1.0 | 3.0 | 0.00 | 0.00 | 0.00 | 90 | 1016.6 |
| 20260904110101 | 79 | 218 | 1.0 | 3.0 | 0.00 | 0.00 | 0.00 | 90 | 1016.6 |
| 20260904104602 | 78 | 218 | 1.0 | 3.0 | 0.00 | 0.00 | 0.00 | 89 | 1016.5 |
| 20260904103100 | 79 | 218 | 0.0 | 3.0 | 0.00 | 0.00 | 0.00 | 89 | 1016.2 |
| 20260904101559 | 79 | 218 | 0.0 | 3.0 | 0.00 | 0.00 | 0.00 | 89 | 1016.2 |
| 20260904100109 | 79 | 218 | 1.0 | 3.0 | 0.00 | 0.00 | 0.00 | 89 | 1016.2 |
| 20260904094556 | 79 | 217 | 0.0 | 3.0 | 0.00 | 0.00 | 0.00 | 89 | 1016.2 |
| 20260904093057 | 80 | 218 | 1.0 | 2.0 | 0.00 | 0.00 | 0.00 | 89 | 1016.2 |
| 20260904091554 | 80 | 217 | 0.0 | 2.0 | 0.00 | 0.00 | 0.00 | 89 | 1016.1 |
| 20260904090054 | 80 | 217 | 0.0 | 3.0 | 0.00 | 0.00 | 0.00 | 88 | 1016.1 |
| 20260904084555 | 80 | 217 | 0.0 | 3.0 | 0.00 | 0.00 | 0.00 | 88 | 1016.1 |
| 20260904083051 | 80 | 218 | 0.0 | 0.0 | 0.00 | 0.00 | 0.00 | 88 | 1016.1 |
| 20260904081550 | 80 | 217 | 0.0 | 0.0 | 0.00 | 0.00 | 0.00 | 88 | 1016.1 |
| 20260904080050 | 81 | 217 | 0.0 | 0.0 | 0.00 | 0.00 | 0.00 | 87 | 1016.2 |
| 20260904074552 | 81 | 217 | 0.0 | 2.0 | 0.00 | 0.00 | 0.00 | 88 | 1016.2 |
| 20260904073047 | 81 | 218 | 0.0 | 2.0 | 0.00 | 0.00 | 0.00 | 87 | 1016.2 |
| 20260904071545 | 82 | 217 | 1.0 | 3.0 | 0.00 | 0.00 | 0.00 | 86 | 1016.2 |
| 20260904070045 | 82 | 216 | 1.0 | 6.0 | 0.00 | 0.00 | 0.00 | 86 | 1016.2 |
| 20260904064543 | 82 | 225 | 1.0 | 5.0 | 0.00 | 0.00 | 0.00 | 86 | 1016.3 |
| 20260904063045 | 82 | 207 | 1.0 | 6.0 | 0.00 | 0.00 | 0.00 | 86 | 1016.4 |
| 20260904061546 | 82 | 218 | 2.0 | 7.0 | 0.00 | 0.00 | 0.00 | 85 | 1016.5 |
| 20260904060041 | 82 | 202 | 3.0 | 7.0 | 0.00 | 0.00 | 0.00 | 85 | 1016.6 |
| 20260904054541 | 82 | 198 | 2.0 | 7.0 | 0.00 | 0.00 | 0.00 | 85 | 1016.7 |
| 20260904053039 | 82 | 219 | 3.0 | 6.0 | 0.00 | 0.00 | 0.00 | 85 | 1016.8 |
| 20260904051556 | 82 | 186 | 2.0 | 6.0 | 0.00 | 0.00 | 0.00 | 85 | 1017.1 |
| 20260904050038 | 82 | 205 | 2.0 | 7.0 | 0.00 | 0.00 | 0.00 | 85 | 1017.2 |
| 20260904044537 | 82 | 195 | 1.0 | 5.0 | 0.00 | 0.00 | 0.00 | 85 | 1017.2 |
| 20260904043036 | 82 | 210 | 3.0 | 8.0 | 0.00 | 0.00 | 0.00 | 85 | 1017.4 |
| 20260904041537 | 82 | 209 | 2.0 | 6.0 | 0.00 | 0.00 | 0.00 | 85 | 1017.6 |
| 20260904040036 | 82 | 210 | 1.0 | 5.0 | 0.00 | 0.00 | 0.00 | 84 | 1017.7 |
| 20260904034534 | 82 | 198 | 2.0 | 7.0 | 0.00 | 0.00 | 0.00 | 84 | 1017.7 |